Regional Weather Roundup
Issued by NWS Bismarck, ND

Home | Current Version | Previous Version | Text Only | Print | Product List | Glossary On
Versions: 1 2 3 4 5 6 7 8 9 10 11 12 13 14 15 16 17 18 19 20 21 22 23 24 25 26 27 28 29 30 31 32 33 34 35 36 37 38 39 40 41 42 43 44 45 46 47 48 49 50
000
ASUS43 KBIS 261410
RWRBIS

NWR BROADCAST TEXT
NATIONAL WEATHER SERVICE BISMARCK ND
900 AM CDT WED APR 26 2017

NOTE: "FAIR" INDICATES FEW OR NO CLOUDS BELOW 12,000 FEET WITH NO
SIGNIFICANT WEATHER AND/OR OBSTRUCTIONS TO VISIBILITY.


CITY           SKY/WX    TMP DP  RH WIND       PRES   REMARKS
WILLISTON      FAIR      31  21  66 NE7       29.96S
MINOT          FAIR      32  23  69 N14       29.93S
MINOT AFB      FAIR      32  21  64 N10       29.94S
BISMARCK       CLOUDY    32  24  72 N14       29.89S
DICKINSON      CLOUDY    31  23  72 NE9       29.88S
GARRISON         N/A     30  22  72 N8        29.91S
HETTINGER ARPT CLOUDY    32  22  66 N13       29.89S
JAMESTOWN      CLOUDY    28  25  88 N18       29.81R WCI  15
HAZEN          FAIR      32  23  69 N10       29.94S
LINTON           N/A     30  27  86 N17G26    29.86S WCI  18
MANDAN         PTSUNNY   28  23  80 N16G22    29.88S WCI  17
STANLEY        FAIR      28  23  80 NE9G15    29.96R WCI  20
TIOGA          FAIR      27  23  86 E12       29.95S WCI  16
WATFORD CITY   FAIR      28  23  80 NE5       29.94S
$$

CITY           SKY/WX    TMP DP  RH WIND       PRES   REMARKS
GRAND FORKS    CLOUDY    31  25  78 NE18G28   29.84S WCI  19
GRAND FORKS AF NOT AVBL
DEVILS LAKE    CLOUDY    28  22  78 N20       29.88S WCI  15
FARGO          LGT SNOW  29  26  89 N22       29.77S VSB 3/4 WCI  15
CAVALIER       CLOUDY    28  23  80 N13G23    29.90S WCI  18
GRAFTON        CLOUDY    28  25  86 N17       29.89F WCI  16
GWINNER        FOG       28  28 100 MISG      29.76S VSB 1/4
LANGDON        CLOUDY    28  23  80 NE22G28   29.87F WCI  15
ROLLA          CLOUDY    28  23  80 NE22      29.90F WCI  15
$$

CITY           SKY/WX    TMP DP  RH WIND       PRES   REMARKS
ABERDEEN       LGT SNOW  30  26  85 N15       29.78F FOG     WCI  19
MOBRIDGE       CLOUDY    34  23  64 N15G26    29.80S
BUFFALO          N/A     33  25  72 N9        29.80S
RAPID CITY     CLOUDY    29  24  82 NW15      29.87S WCI  18
GLASGOW        CLOUDY    35  24  64 SE13      29.88F
SIDNEY         FAIR      30  24  78 NE7       29.94S
WOLF POINT     CLOUDY    36  26  67 E8        29.93S
GLENDIVE       CLOUDY    32  27  81 E8        29.91S
MILES CITY     CLOUDY    35  24  64 S8        29.88R
BAKER          CLOUDY    32  24  72 CALM      29.89S
$$

CITY           SKY/WX    TMP DP  RH WIND       PRES   REMARKS
BILLINGS       CLOUDY    35  30  82 CALM      29.80F
GREAT FALLS    FAIR      38  34  85 E5        29.72S
REGINA         CLOUDY    28  18  64 SE13      29.98S WCI  18
ESTEVAN        MOSUNNY   30  19  64 E10       29.97S
$$




USA.gov is the U.S. government's official web portal to all federal, state and local government web resources and services.